[[{"header":{"parameterUnit":"m.s-1","parameterCategory":1,"la1":30.2991,"la2":30.254,"lo1":-89.0895,"lo2":-89.0444,"dy":0.0017,"dx":0.0017,"nx":28,"ny":28,"refTime":"2023-10-28T03:00:00:Z","depth":0,"parameterNumber":2,"parameterNumberName":"U-component_of_WINDS"},"data":[0,0,0,0,0,0,0,0,0,0,0,0,0,0,0,0,0,0,0,0,0,0,0,0,0,0,0,0,0,0,0,0,0,0,0,0,0,0,0,0,0,0,0,0,0,0,0,0,0,0,0,0,0,0,0,0,0,0,-2.3618,-2.3618,0,-2.3593,-2.3593,-2.3593,-2.3525,-2.3523,-2.3522,-2.352,-2.3497,-2.3498,-2.3499,0,0,0,0,0,0,0,0,0,0,0,0,0,-2.3609,-2.361,-2.3618,-2.3618,-2.3617,-2.3593,-2.3593,-2.3592,-2.3525,-2.3523,-2.3521,-2.352,-2.3497,-2.3498,-2.3499,0,0,0,0,0,0,0,0,0,0,0,0,0,-2.3602,-2.361,-2.3618,-2.3581,-2.3577,-2.3593,-2.3593,-2.3592,-2.3525,-2.3523,-2.3521,-2.3519,-2.3497,-2.3498,-2.3499,-2.355,0,0,-2.3502,-2.3503,0,0,0,0,0,0,0,0,-2.3602,-2.3602,-2.3586,-2.3583,-2.3579,-2.356,-2.3581,-2.3578,-2.3526,-2.3545,-2.352,-2.3518,-2.352,-2.3519,-2.3519,-2.3549,-2.3548,-2.3502,-2.3503,-2.3504,-2.3504,0,0,0,0,0,0,0,-2.3603,-2.3603,-2.3608,-2.3586,-2.3582,-2.3566,-2.3562,-2.358,-2.3545,-2.3543,-2.3538,-2.3536,-2.3517,-2.3518,-2.3518,-2.3548,-2.3502,-2.3503,-2.3504,-2.3505,-2.3619,-2.3621,0,0,0,0,0,0,-2.3608,-2.3604,-2.3609,-2.3607,-2.3585,-2.3568,-2.3564,-2.3568,-2.3545,-2.3539,-2.3538,-2.3533,-2.3517,-2.3517,-2.3517,-2.3575,-2.3504,-2.3505,-2.3505,-2.3616,-2.3619,-2.3622,0,0,0,0,0,0,-2.3608,-2.3609,-2.361,-2.3604,-2.3603,-2.357,-2.3576,-2.3569,-2.3569,-2.3541,-2.3534,-2.3545,-2.3516,-2.3516,-2.3542,-2.3574,-2.3505,-2.3506,-2.3614,-2.3617,-2.3621,-2.3693,0,0,0,0,0,0,-2.3608,-2.361,-2.3628,-2.3605,-2.3603,-2.3635,-2.3578,-2.357,-2.3571,-2.3565,-2.3546,-2.3541,-2.3514,-2.3541,-2.3543,-2.3574,-2.3507,-2.3611,-2.3615,-2.3619,-2.3688,-2.3698,-2.3708,0,0,0,0,0,-2.3608,-2.365,-2.3629,-2.363,-2.3626,-2.3637,-2.3636,-2.3604,-2.3574,-2.3593,-2.3575,-2.3541,-2.357,-2.3544,-2.3546,-2.3578,-2.3609,-2.3614,-2.3619,-2.3683,-2.3696,-2.3708,0,0,0,0,0,0,-2.3678,-2.3646,-2.3623,-2.3658,-2.3651,-2.3625,-2.3647,-2.3619,-2.362,-2.3614,-2.3575,-2.3571,-2.3604,-2.3593,-2.3565,-2.3627,-2.3584,-2.359,-2.3632,-2.3644,-2.3654,-2.3656,-2.3508,0,0,0,0,0,-2.3697,-2.3708,-2.368,-2.3714,-2.3711,-2.368,-2.3684,-2.366,-2.3651,-2.3648,-2.3631,-2.3624,-2.3632,-2.3638,-2.3643,-2.3686,-2.3681,-2.3709,-2.3719,-2.3728,-2.3733,-2.3756,-2.3768,-2.3639,-2.3639,-2.3639,0,0,-2.3737,-2.3721,-2.3731,-2.3727,-2.3719,-2.3732,-2.3678,-2.3694,-2.3703,-2.365,-2.3674,-2.3662,-2.3652,-2.3688,-2.3702,-2.368,-2.3768,-2.3735,-2.3741,-2.3742,-2.3763,-2.3775,-2.3786,-2.3643,-2.3642,-2.3642,0,0,-2.3817,-2.3806,-2.3833,-2.3825,-2.3813,-2.3792,-2.3799,-2.3778,-2.3768,-2.3792,-2.3752,-2.3764,-2.3777,-2.3772,-2.3771,-2.385,-2.382,-2.3853,-2.3906,-2.3928,-2.3939,-2.3947,-2.3976,-2.3986,-2.3859,-2.3859,-2.3859,0,-2.3868,-2.3885,-2.3851,-2.3869,-2.3869,-2.3821,-2.3849,-2.3844,-2.3834,-2.3836,-2.3811,-2.3828,-2.3818,-2.3851,-2.3871,-2.3872,-2.3878,-2.3855,-2.394,-2.3948,-2.3956,-2.3982,-2.3993,-2.3863,-2.3863,-2.3862,-2.3862,0,-2.395,-2.3962,-2.3986,-2.3977,-2.398,-2.4003,-2.3973,-2.398,-2.3956,-2.3939,-2.3964,-2.395,-2.3952,-2.3959,-2.3936,-2.399,-2.3976,-2.3947,-2.3903,-2.3973,-2.3997,-2.4007,-2.3869,-2.3868,-2.3866,-2.3865,0,0,-2.4071,-2.4043,-2.4052,-2.4048,-2.4032,-2.4041,-2.4063,-2.4064,-2.4072,-2.4067,-2.4085,-2.4098,-2.4071,-2.407,-2.4046,-2.4066,-2.413,-2.4034,-2.4033,-2.4052,-2.4189,-2.4211,-2.4223,-2.411,-2.4112,-2.4113,-2.4189,0,-2.4145,-2.4179,-2.4149,-2.419,-2.4201,-2.4157,-2.4176,-2.4169,-2.4154,-2.4162,-2.4145,-2.4155,-2.4118,-2.4117,-2.4135,-2.4118,-2.4157,-2.4113,-2.4126,-2.4127,-2.4129,-2.4235,-2.4258,-2.4331,-2.4199,-2.42,-2.4201,0,-2.4237,-2.4236,-2.4277,-2.4259,-2.4263,-2.428,-2.428,-2.4288,-2.4279,-2.4267,-2.4267,-2.4238,-2.4259,-2.4217,-2.4246,-2.4216,-2.422,-2.4213,-2.4215,-2.4215,-2.4168,-2.4237,-2.4353,-2.4364,-2.4216,-2.4215,-2.4214,0,-2.432,-2.433,-2.4356,-2.4354,-2.4333,-2.4347,-2.4339,-2.4328,-2.4331,-2.4331,-2.4333,-2.4336,-2.4338,-2.4341,-2.4314,-2.4286,-2.4347,-2.4302,-2.4337,-2.4338,-2.4351,-2.435,-2.4468,-2.4355,-2.4355,-2.4355,-2.4354,0,-2.4406,-2.4433,-2.4394,-2.441,-2.4439,-2.4405,-2.4435,-2.4423,-2.4414,-2.4428,-2.439,-2.4404,-2.4368,-2.4379,-2.4358,-2.4385,-2.4386,-2.4377,-2.4371,-2.438,-2.4381,-2.4381,-2.4375,-2.4358,-2.4357,-2.4356,-2.4356,0,-2.4504,-2.4479,-2.4504,-2.4483,-2.4478,-2.4501,-2.4483,-2.4497,-2.448,-2.4498,-2.45,-2.4473,-2.4484,-2.4458,-2.4465,-2.4451,-2.4489,-2.4476,-2.4492,-2.4488,-2.4524,-2.4521,-2.4645,-2.466,-2.4539,-2.454,-2.4541,0,-2.456,-2.458,-2.4561,-2.4567,-2.4561,-2.4572,-2.4575,-2.4543,-2.4548,-2.454,-2.4556,-2.4563,-2.4567,-2.4586,-2.4567,-2.4573,-2.4558,-2.4602,-2.4559,-2.4567,-2.4559,-2.4557,-2.4559,-2.4611,-2.4612,-2.4613,-2.4614,0,-2.4662,-2.4649,-2.4654,-2.4656,-2.4661,-2.4661,-2.4658,-2.4665,-2.4632,-2.4639,-2.4649,-2.4652,-2.4659,-2.4667,-2.4668,-2.4661,-2.4632,-2.4628,-2.4636,-2.4645,-2.4653,-2.4649,-2.4515,-2.4625,-2.4624,-2.4623,-2.4623,-2.4622,-2.474,-2.4756,-2.4745,-2.4753,-2.4748,-2.4746,-2.4759,-2.4744,-2.4751,-2.4754,-2.4735,-2.4749,-2.4741,-2.474,-2.4736,-2.4747,-2.4727,-2.474,-2.4742,-2.4746,-2.4751,-2.4653,-2.4748,-2.4747,-2.4747,-2.4747,-2.4746,0,-2.484,-2.4831,-2.4838,-2.4836,-2.4842,-2.4815,-2.4811,-2.4818,-2.4831,-2.4826,-2.4831,-2.4843,-2.4851,-2.4834,-2.4839,-2.4851,-2.4838,-2.4854,-2.4852,-2.4851,-2.4769,-2.4761,-2.4864,-2.4864,-2.4864,-2.4864,-2.4864,-2.4864,-2.4892,-2.4917,-2.4903,-2.4926,-2.4917,-2.493,-2.493,-2.4929,-2.4925,-2.494,-2.4946,-2.4935,-2.4925,-2.493,-2.4936,-2.4931,-2.4934,-2.4954,-2.4945,-2.4868,-2.4857,-2.4845,-2.4838,-2.4955,-2.4956,-2.5025,-2.5026,-2.5026]},{"header":{"parameterUnit":"m.s-1","parameterCategory":1,"la1":30.2991,"la2":30.254,"lo1":-89.0895,"lo2":-89.0444,"dy":0.0017,"dx":0.0017,"nx":28,"ny":28,"refTime":"2023-10-28T03:00:00:Z","depth":0,"parameterNumber":3,"parameterNumberName":"V-component_of_WINDS"},"data":[0,0,0,0,0,0,0,0,0,0,0,0,0,0,0,0,0,0,0,0,0,0,0,0,0,0,0,0,0,0,0,0,0,0,0,0,0,0,0,0,0,0,0,0,0,0,0,0,0,0,0,0,0,0,0,0,0,0,-0.0364,-0.0365,0,-0.0445,-0.0446,-0.0446,-0.0452,-0.0451,-0.045,-0.0449,-0.0533,-0.0536,-0.0539,0,0,0,0,0,0,0,0,0,0,0,0,0,-0.0213,-0.0215,-0.0364,-0.0365,-0.0366,-0.0444,-0.0446,-0.0447,-0.0452,-0.0451,-0.045,-0.0448,-0.0532,-0.0536,-0.054,0,0,0,0,0,0,0,0,0,0,0,0,0,-0.0284,-0.0216,-0.0364,-0.0378,-0.038,-0.0444,-0.0446,-0.0447,-0.0452,-0.0451,-0.0449,-0.0448,-0.0531,-0.0535,-0.054,-0.0596,0,0,-0.0554,-0.0556,0,0,0,0,0,0,0,0,-0.028,-0.029,-0.0375,-0.0377,-0.0379,-0.0437,-0.0423,-0.0497,-0.0452,-0.0425,-0.0449,-0.0447,-0.0502,-0.0509,-0.0527,-0.06,-0.0604,-0.0555,-0.0557,-0.0559,-0.0561,0,0,0,0,0,0,0,-0.0275,-0.0286,-0.0396,-0.0376,-0.0379,-0.038,-0.0388,-0.0437,-0.047,-0.0427,-0.0428,-0.0437,-0.0503,-0.0523,-0.0529,-0.0605,-0.0555,-0.0559,-0.0561,-0.0563,-0.0724,-0.0726,0,0,0,0,0,0,-0.0268,-0.0282,-0.0393,-0.0398,-0.0325,-0.0383,-0.0393,-0.042,-0.047,-0.0476,-0.0438,-0.0437,-0.0516,-0.0524,-0.0532,-0.0599,-0.0559,-0.0564,-0.0566,-0.0723,-0.0725,-0.0726,0,0,0,0,0,0,-0.0264,-0.0277,-0.039,-0.034,-0.0355,-0.0388,-0.0417,-0.0422,-0.0442,-0.0478,-0.0484,-0.0452,-0.0515,-0.0526,-0.0579,-0.0602,-0.0566,-0.057,-0.0721,-0.0723,-0.0726,-0.0735,0,0,0,0,0,0,-0.026,-0.0276,-0.0299,-0.0341,-0.0357,-0.0436,-0.0419,-0.0425,-0.0449,-0.0449,-0.0493,-0.0499,-0.0515,-0.0572,-0.0584,-0.0608,-0.0574,-0.0719,-0.0722,-0.0725,-0.0733,-0.0737,-0.0741,0,0,0,0,0,-0.0255,-0.0299,-0.03,-0.0313,-0.0386,-0.0438,-0.0447,-0.0464,-0.0451,-0.0473,-0.0496,-0.0497,-0.0598,-0.0578,-0.0591,-0.0617,-0.0718,-0.0721,-0.0725,-0.0731,-0.0736,-0.0741,0,0,0,0,0,0,-0.026,-0.0305,-0.0306,-0.0366,-0.0397,-0.0438,-0.0467,-0.047,-0.0506,-0.0504,-0.0524,-0.0534,-0.0586,-0.0607,-0.0584,-0.0672,-0.0656,-0.0663,-0.0657,-0.0662,-0.0666,-0.066,-0.0578,0,0,0,0,0,-0.0268,-0.0306,-0.0343,-0.0392,-0.0408,-0.0434,-0.0458,-0.0467,-0.0501,-0.0515,-0.0542,-0.0575,-0.0614,-0.0639,-0.0677,-0.0735,-0.0744,-0.0759,-0.0763,-0.0767,-0.0772,-0.0801,-0.0808,-0.0737,-0.0737,-0.0737,0,0,-0.0285,-0.0314,-0.0338,-0.0394,-0.042,-0.0458,-0.0446,-0.0488,-0.0516,-0.0522,-0.0573,-0.0594,-0.0632,-0.0687,-0.0713,-0.0706,-0.0793,-0.0771,-0.0773,-0.0777,-0.0805,-0.0812,-0.0818,-0.074,-0.0739,-0.0739,0,0,-0.0336,-0.0362,-0.0404,-0.043,-0.0468,-0.0485,-0.0495,-0.0535,-0.0548,-0.06,-0.0604,-0.0638,-0.0705,-0.0731,-0.0753,-0.0809,-0.0811,-0.0821,-0.0843,-0.0871,-0.0877,-0.0882,-0.09,-0.0906,-0.0826,-0.0826,-0.0826,0,-0.0352,-0.041,-0.0426,-0.0467,-0.049,-0.0496,-0.0537,-0.0562,-0.0611,-0.0627,-0.0618,-0.07,-0.0726,-0.0786,-0.0799,-0.0818,-0.0829,-0.0816,-0.0875,-0.088,-0.0885,-0.0902,-0.0909,-0.0827,-0.0827,-0.0826,-0.0826,0,-0.0427,-0.0467,-0.0497,-0.0542,-0.0569,-0.0611,-0.0631,-0.0657,-0.0663,-0.0681,-0.0732,-0.0763,-0.0806,-0.0821,-0.0829,-0.0881,-0.0875,-0.087,-0.0855,-0.0892,-0.0909,-0.0916,-0.0828,-0.0828,-0.0827,-0.0827,0,0,-0.0486,-0.0537,-0.0547,-0.0567,-0.0608,-0.0639,-0.0679,-0.072,-0.074,-0.0773,-0.0806,-0.0861,-0.0856,-0.0881,-0.0891,-0.0916,-0.0956,-0.0908,-0.0909,-0.0915,-0.1013,-0.1016,-0.1024,-0.0957,-0.0959,-0.096,-0.101,0,-0.054,-0.0611,-0.0625,-0.0687,-0.0723,-0.0726,-0.0761,-0.079,-0.0806,-0.0838,-0.0857,-0.0894,-0.0886,-0.09,-0.0925,-0.0946,-0.0976,-0.0943,-0.0988,-0.0989,-0.0977,-0.1033,-0.1037,-0.1082,-0.1016,-0.1018,-0.1018,0,-0.0613,-0.0645,-0.071,-0.0744,-0.0759,-0.079,-0.0827,-0.0858,-0.089,-0.09,-0.0925,-0.0932,-0.0973,-0.0955,-0.1011,-0.0988,-0.1007,-0.1019,-0.1021,-0.1026,-0.1006,-0.1038,-0.1098,-0.1104,-0.1029,-0.1028,-0.1028,0,-0.0646,-0.0707,-0.0753,-0.0769,-0.081,-0.0831,-0.0849,-0.0879,-0.0902,-0.0934,-0.0948,-0.0985,-0.1005,-0.1033,-0.1049,-0.1035,-0.1102,-0.1087,-0.1111,-0.111,-0.1125,-0.1124,-0.1188,-0.1139,-0.1139,-0.1139,-0.1138,0,-0.0705,-0.0744,-0.0768,-0.0796,-0.0839,-0.0854,-0.0896,-0.0914,-0.094,-0.0971,-0.0977,-0.1006,-0.1025,-0.1057,-0.1069,-0.1112,-0.1122,-0.113,-0.1133,-0.1129,-0.1128,-0.1142,-0.1139,-0.114,-0.114,-0.114,-0.1139,0,-0.075,-0.0768,-0.0817,-0.0851,-0.086,-0.089,-0.0918,-0.0945,-0.096,-0.0999,-0.1009,-0.1034,-0.107,-0.1089,-0.1135,-0.1144,-0.1191,-0.1193,-0.118,-0.1181,-0.1204,-0.1201,-0.1278,-0.1288,-0.1234,-0.1234,-0.1235,0,-0.0786,-0.0815,-0.0851,-0.0871,-0.0889,-0.0923,-0.0945,-0.096,-0.0983,-0.1019,-0.1041,-0.1077,-0.1108,-0.1166,-0.1188,-0.1223,-0.1224,-0.1249,-0.123,-0.1224,-0.1223,-0.122,-0.1222,-0.1252,-0.1253,-0.1253,-0.1254,0,-0.0846,-0.0853,-0.0884,-0.0918,-0.0944,-0.0972,-0.0999,-0.1015,-0.1034,-0.1059,-0.1096,-0.1119,-0.1165,-0.1201,-0.1236,-0.1254,-0.1257,-0.1259,-0.1266,-0.1263,-0.1253,-0.1257,-0.1188,-0.1257,-0.1257,-0.1257,-0.1257,-0.1256,-0.0887,-0.0913,-0.0941,-0.0975,-0.0996,-0.102,-0.1046,-0.1064,-0.1094,-0.1132,-0.1139,-0.1177,-0.1206,-0.1253,-0.1272,-0.1302,-0.1297,-0.1308,-0.131,-0.1313,-0.1313,-0.1249,-0.1309,-0.1309,-0.1309,-0.1309,-0.1309,0,-0.0947,-0.0964,-0.0995,-0.1032,-0.1058,-0.1056,-0.1085,-0.1107,-0.1141,-0.1167,-0.1195,-0.1236,-0.127,-0.1293,-0.1327,-0.1347,-0.1348,-0.1355,-0.1354,-0.1357,-0.1317,-0.1306,-0.1353,-0.1353,-0.1353,-0.1353,-0.1353,-0.1353,-0.0981,-0.1023,-0.1032,-0.1084,-0.1101,-0.1138,-0.1155,-0.1176,-0.1197,-0.1242,-0.1269,-0.1284,-0.1308,-0.1343,-0.1374,-0.138,-0.1391,-0.1398,-0.1403,-0.1365,-0.136,-0.1356,-0.1346,-0.1401,-0.1401,-0.1441,-0.1442,-0.1442]}]]